Weather History for KAOH - November, 2013

Change the Weather History Date:

Friday, November 8, 2013

  Actual Average (KFDY) Record (KFDY)
Temperature  
Mean Temperature 39 °F -  
Max Temperature 45 °F 50 °F 70 °F (1975)
Min Temperature 33 °F 35 °F 7 °F (1991)
Degree Days  
Heating Degree Days 26    
Moisture  
Dew Point 29 °F    
Average Humidity 73    
Maximum Humidity 87    
Minimum Humidity 49    
Precipitation  
Precipitation 0.00 in - - ()
Sea Level Pressure  
Sea Level Pressure 30.28 in    
Wind  
Wind Speed 8 mph (WSW)    
Max Wind Speed 12 mph    
Max Gust Speed -    
Visibility 9 miles    
Events      
Averages and records for this station are not official NWS values.
T = Trace of Precipitation, MM = Missing Value Source: NWS Daily Summary

Daily Weather History Graph

Daily Weather History Graph

Search for Another Location

Airport or City:

Trip Planner

Search our weather history database for the weather conditions in past years. The results will help you decide how hot, cold, wet, or windy it might be!

Date:

Astronomy

Nov. 08, 2013 Rise Set
Actual Time 7:14 AM EST 5:24 PM EST
Civil Twilight 6:46 AM EST 5:53 PM EST
Nautical Twilight 6:13 AM EST 6:25 PM EST
Astronomical Twilight 5:41 AM EST 6:57 PM EST
Moon 12:09 PM EST (11/8) 10:44 PM EST (11/8)
Length of Visible Light 11h 07m
Length of Day
10h 09m
Waxing Crescent, 33% of the Moon is Illuminated
Nov 8
Waxing Crescent
Nov 10
First Quarter
Nov 17
Full
Nov 25
Last Quarter
Dec 2
New

Hourly Weather History & Observations

Time (EST) Temp. Windchill Dew Point Humidity Pressure Visibility Wind Dir Wind Speed Gust Speed Precip Events Conditions
12:53 AM 37.9 °F 31.5 °F 32.0 °F 79% 30.20 in 10.0 mi WNW 9.2 mph - N/A   Scattered Clouds
1:53 AM 37.9 °F 30.5 °F 30.9 °F 76% 30.20 in 10.0 mi WNW 11.5 mph - N/A   Clear
2:53 AM 36.0 °F 28.5 °F 30.9 °F 82% 30.21 in 9.0 mi West 10.4 mph - N/A   Clear
3:53 AM 34.0 °F 26.6 °F 30.0 °F 85% 30.22 in 6.0 mi WSW 9.2 mph - N/A   Clear
4:53 AM 34.0 °F 26.0 °F 28.9 °F 82% 30.23 in 7.0 mi West 10.4 mph - N/A   Overcast
5:51 AM 33.8 °F 27.7 °F 28.4 °F 81% 30.23 in 8.0 mi West 6.9 mph - N/A   Mostly Cloudy
5:53 AM 34.0 °F 27.2 °F 28.9 °F 82% 30.26 in 8.0 mi West 8.1 mph - N/A   Mostly Cloudy
6:19 AM 33.8 °F 25.8 °F 28.4 °F 81% 30.24 in 9.0 mi West 10.4 mph - N/A   Overcast
6:53 AM 34.0 °F 26.6 °F 28.9 °F 82% 30.27 in 8.0 mi West 9.2 mph - N/A   Overcast
7:16 AM 33.8 °F 25.8 °F 28.4 °F 81% 30.26 in 8.0 mi West 10.4 mph - N/A   Overcast
7:48 AM 33.8 °F 25.8 °F 28.4 °F 81% 30.28 in 6.0 mi West 10.4 mph - N/A   Scattered Clouds
7:53 AM 33.1 °F 25.5 °F 28.9 °F 85% 30.30 in 6.0 mi West 9.2 mph - N/A   Scattered Clouds
8:53 AM 34.0 °F 26.6 °F 30.0 °F 85% 30.33 in 5.0 mi West 9.2 mph - N/A   Mostly Cloudy
9:02 AM 33.8 °F 26.4 °F 30.2 °F 87% 30.31 in 5.0 mi West 9.2 mph - N/A   Mostly Cloudy
9:53 AM 36.0 °F 29.6 °F 30.9 °F 82% 30.34 in 7.0 mi WNW 8.1 mph - N/A   Overcast
10:31 AM 37.4 °F 33.8 °F 32.0 °F 81% 30.32 in 9.0 mi West 4.6 mph - N/A   Scattered Clouds
10:44 AM 39.2 °F 34.2 °F 32.0 °F 75% 30.32 in 9.0 mi West 6.9 mph - N/A   Mostly Cloudy
10:53 AM 39.0 °F 36.8 °F 30.9 °F 73% 30.35 in 10.0 mi NNW 3.5 mph - N/A   Mostly Cloudy
11:01 AM 39.2 °F 37.0 °F 32.0 °F 75% 30.33 in 10.0 mi Variable 3.5 mph - N/A   Scattered Clouds
11:36 AM 39.2 °F 33.6 °F 30.2 °F 70% 30.32 in 10.0 mi WSW 8.1 mph - N/A   Mostly Cloudy
11:53 AM 41.0 °F 35.8 °F 30.9 °F 67% 30.34 in 10.0 mi West 8.1 mph - N/A   Mostly Cloudy
12:04 PM 41.0 °F 35.8 °F 28.4 °F 61% 30.31 in 10.0 mi West 8.1 mph - N/A   Mostly Cloudy
12:53 PM 41.0 °F 36.4 °F 28.0 °F 60% 30.32 in 10.0 mi West 6.9 mph - N/A   Clear
1:53 PM 45.0 °F 41.8 °F 27.0 °F 49% 30.30 in 10.0 mi WSW 5.8 mph - N/A   Scattered Clouds
2:53 PM 45.0 °F 41.2 °F 27.0 °F 49% 30.28 in 10.0 mi WSW 6.9 mph - N/A   Partly Cloudy
3:53 PM 44.1 °F 39.0 °F 27.0 °F 51% 30.29 in 10.0 mi WSW 9.2 mph - N/A   Clear
4:53 PM 44.1 °F 40.1 °F 28.0 °F 53% 30.27 in 10.0 mi SW 6.9 mph - N/A   Clear
5:53 PM 41.0 °F 39.0 °F 28.0 °F 60% 30.27 in 10.0 mi SSW 3.5 mph - N/A   Clear
6:53 PM 37.9 °F 34.4 °F 28.9 °F 70% 30.27 in 10.0 mi SSE 4.6 mph - N/A   Clear
7:53 PM 37.0 °F 31.6 °F 28.0 °F 70% 30.27 in 10.0 mi South 6.9 mph - N/A   Clear
8:53 PM 36.0 °F 30.3 °F 28.0 °F 73% 30.26 in 10.0 mi SSE 6.9 mph - N/A   Clear
9:53 PM 37.9 °F 32.1 °F 30.0 °F 73% 30.24 in 10.0 mi SSE 8.1 mph - N/A   Partly Cloudy
10:53 PM 37.0 °F 32.4 °F 28.9 °F 73% 30.24 in 10.0 mi SSE 5.8 mph - N/A   Clear
11:53 PM 37.0 °F 31.0 °F 28.9 °F 73% 30.20 in 10.0 mi SSE 8.1 mph - N/A   Clear